[[{"header":{"parameterUnit":"m.s-1","parameterCategory":1,"la1":30.2991,"la2":30.254,"lo1":-89.0895,"lo2":-89.0444,"dy":0.0017,"dx":0.0017,"nx":28,"ny":28,"refTime":"2024-05-07T09:00:00:Z","depth":0,"parameterNumber":2,"parameterNumberName":"U-component_of_WINDS"},"data":[0,0,0,0,0,0,0,0,0,0,0,0,0,0,0,0,0,0,0,0,0,0,0,0,0,0,0,0,0,0,0,0,0,0,0,0,0,0,0,0,0,0,0,0,0,0,0,0,0,0,0,0,0,0,0,0,0,0,-0.7812,-0.7813,0,-0.7869,-0.787,-0.7871,-0.7911,-0.7911,-0.7911,-0.7912,-0.7971,-0.7972,-0.7973,0,0,0,0,0,0,0,0,0,0,0,0,0,-0.7738,-0.7739,-0.7812,-0.7813,-0.7813,-0.7869,-0.787,-0.7871,-0.7911,-0.7911,-0.7912,-0.7912,-0.7971,-0.7972,-0.7974,0,0,0,0,0,0,0,0,0,0,0,0,0,-0.778,-0.7739,-0.7812,-0.784,-0.7843,-0.7869,-0.787,-0.7871,-0.7911,-0.7911,-0.7912,-0.7912,-0.797,-0.7972,-0.7974,-0.7977,0,0,-0.798,-0.7981,0,0,0,0,0,0,0,0,-0.7778,-0.7783,-0.7835,-0.7838,-0.7842,-0.7883,-0.7866,-0.7907,-0.7911,-0.7885,-0.7912,-0.7912,-0.7941,-0.7946,-0.7956,-0.7979,-0.7982,-0.798,-0.7981,-0.7982,-0.7982,0,0,0,0,0,0,0,-0.7775,-0.778,-0.7835,-0.7836,-0.784,-0.785,-0.7857,-0.7874,-0.791,-0.7887,-0.789,-0.7897,-0.7943,-0.7954,-0.7957,-0.7983,-0.798,-0.7982,-0.7983,-0.7984,-0.8012,-0.8012,0,0,0,0,0,0,-0.7767,-0.7778,-0.7833,-0.7836,-0.781,-0.7851,-0.7858,-0.787,-0.791,-0.7917,-0.7896,-0.7898,-0.795,-0.7955,-0.7959,-0.7966,-0.7982,-0.7984,-0.7985,-0.8013,-0.8012,-0.8012,0,0,0,0,0,0,-0.7765,-0.7772,-0.7831,-0.7808,-0.7816,-0.7852,-0.7864,-0.787,-0.7881,-0.7917,-0.7923,-0.79,-0.7951,-0.7957,-0.7972,-0.7968,-0.7985,-0.7986,-0.8013,-0.8013,-0.8012,-0.7978,0,0,0,0,0,0,-0.7763,-0.7771,-0.7772,-0.7808,-0.7817,-0.7842,-0.7864,-0.7871,-0.7884,-0.7887,-0.7922,-0.7928,-0.7951,-0.7969,-0.7974,-0.7971,-0.7988,-0.8014,-0.8013,-0.8012,-0.798,-0.7976,-0.7974,0,0,0,0,0,-0.776,-0.776,-0.7772,-0.7778,-0.7819,-0.7842,-0.7847,-0.7874,-0.7883,-0.7885,-0.7908,-0.7927,-0.7968,-0.797,-0.7976,-0.7974,-0.8014,-0.8013,-0.8012,-0.7981,-0.7977,-0.7974,0,0,0,0,0,0,-0.7723,-0.7765,-0.7779,-0.779,-0.7812,-0.7848,-0.7851,-0.7869,-0.7889,-0.7891,-0.7923,-0.7931,-0.7943,-0.796,-0.7962,-0.7979,-0.7993,-0.7994,-0.7968,-0.7964,-0.7961,-0.7957,-0.7989,0,0,0,0,0,-0.7716,-0.773,-0.7767,-0.7773,-0.7783,-0.7815,-0.7826,-0.7845,-0.7869,-0.7878,-0.7903,-0.7925,-0.7944,-0.7955,-0.7973,-0.7982,-0.7991,-0.7984,-0.7981,-0.7978,-0.7978,-0.7985,-0.7982,-0.8009,-0.8009,-0.8009,0,0,-0.7702,-0.7727,-0.7734,-0.7766,-0.7785,-0.78,-0.7823,-0.7837,-0.7848,-0.7881,-0.7897,-0.7915,-0.7943,-0.7955,-0.7962,-0.797,-0.7973,-0.7977,-0.7975,-0.7976,-0.7984,-0.7981,-0.7979,-0.8008,-0.8009,-0.8009,0,0,-0.7684,-0.7703,-0.7711,-0.773,-0.7759,-0.778,-0.7782,-0.7816,-0.783,-0.7846,-0.7871,-0.7885,-0.7915,-0.7934,-0.7948,-0.7937,-0.7955,-0.7942,-0.7926,-0.7932,-0.793,-0.7929,-0.7925,-0.7923,-0.7942,-0.7942,-0.7942,0,-0.7662,-0.7685,-0.7713,-0.7726,-0.774,-0.777,-0.7778,-0.7795,-0.7829,-0.7838,-0.7846,-0.7885,-0.7906,-0.7923,-0.7921,-0.7931,-0.7934,-0.7938,-0.7928,-0.7927,-0.7926,-0.7923,-0.7921,-0.794,-0.794,-0.7941,-0.7941,0,-0.7658,-0.7673,-0.7676,-0.7707,-0.7721,-0.7732,-0.7762,-0.7773,-0.7791,-0.7811,-0.7828,-0.7854,-0.7879,-0.7884,-0.7901,-0.7904,-0.7908,-0.7922,-0.7937,-0.7921,-0.7919,-0.7918,-0.7938,-0.7938,-0.7939,-0.7939,0,0,-0.7617,-0.7664,-0.7665,-0.768,-0.7714,-0.7726,-0.7739,-0.7763,-0.7772,-0.7794,-0.7805,-0.783,-0.7843,-0.7859,-0.7878,-0.7884,-0.7874,-0.7897,-0.7898,-0.7892,-0.7879,-0.7869,-0.7867,-0.7886,-0.7886,-0.7886,-0.7877,0,-0.7604,-0.7627,-0.7653,-0.7667,-0.7682,-0.7711,-0.7722,-0.7744,-0.7764,-0.7779,-0.7801,-0.7819,-0.7834,-0.7844,-0.785,-0.7874,-0.7872,-0.7875,-0.7897,-0.7898,-0.7889,-0.7866,-0.7855,-0.7845,-0.7876,-0.7876,-0.7876,0,-0.7592,-0.7613,-0.7628,-0.7662,-0.7669,-0.7678,-0.7702,-0.7717,-0.7743,-0.7757,-0.7774,-0.7795,-0.781,-0.7823,-0.7843,-0.7845,-0.7856,-0.7869,-0.7869,-0.7872,-0.7886,-0.7868,-0.7842,-0.7841,-0.7875,-0.7875,-0.7875,0,-0.7562,-0.7593,-0.7607,-0.7619,-0.7658,-0.7663,-0.768,-0.7706,-0.7719,-0.7741,-0.775,-0.7772,-0.7785,-0.7802,-0.7829,-0.7836,-0.7847,-0.7862,-0.786,-0.7859,-0.7861,-0.786,-0.7836,-0.7867,-0.7867,-0.7867,-0.7867,0,-0.7545,-0.7553,-0.7594,-0.7602,-0.7612,-0.7643,-0.7652,-0.7672,-0.7695,-0.7708,-0.7734,-0.7746,-0.7781,-0.7796,-0.7818,-0.7832,-0.7837,-0.7849,-0.7855,-0.7847,-0.7845,-0.7855,-0.7856,-0.7867,-0.7867,-0.7867,-0.7867,0,-0.7512,-0.754,-0.7557,-0.7592,-0.7601,-0.7607,-0.7638,-0.7648,-0.7669,-0.7685,-0.769,-0.7724,-0.7744,-0.7772,-0.7801,-0.7815,-0.7826,-0.7835,-0.7817,-0.7821,-0.7816,-0.7817,-0.7797,-0.7797,-0.7828,-0.7827,-0.7827,0,-0.75,-0.7507,-0.7543,-0.7554,-0.7569,-0.7586,-0.7599,-0.7629,-0.7642,-0.7673,-0.7678,-0.77,-0.772,-0.775,-0.7777,-0.78,-0.7809,-0.7801,-0.7813,-0.7805,-0.781,-0.7809,-0.781,-0.7798,-0.7798,-0.7797,-0.7797,0,-0.7475,-0.7488,-0.7506,-0.7529,-0.7544,-0.7564,-0.7585,-0.7592,-0.7627,-0.764,-0.766,-0.7675,-0.7705,-0.7726,-0.7752,-0.777,-0.7789,-0.7793,-0.7794,-0.7786,-0.7775,-0.7781,-0.781,-0.7793,-0.7794,-0.7794,-0.7794,-0.7794,-0.7453,-0.7461,-0.7487,-0.7507,-0.7525,-0.7544,-0.7555,-0.7578,-0.7595,-0.7622,-0.7638,-0.7658,-0.7685,-0.7721,-0.7738,-0.7754,-0.7762,-0.7763,-0.7763,-0.7763,-0.776,-0.7773,-0.7759,-0.7759,-0.7759,-0.7759,-0.776,0,-0.743,-0.7448,-0.7466,-0.7494,-0.7509,-0.7526,-0.755,-0.7562,-0.7579,-0.7602,-0.762,-0.7644,-0.7666,-0.7694,-0.7717,-0.7725,-0.7735,-0.773,-0.773,-0.7734,-0.7752,-0.7749,-0.7722,-0.7722,-0.7722,-0.7722,-0.7722,-0.7722,-0.7419,-0.7434,-0.745,-0.7474,-0.7493,-0.7513,-0.7525,-0.7543,-0.7561,-0.7587,-0.7604,-0.7623,-0.7648,-0.7674,-0.7694,-0.7702,-0.7709,-0.7702,-0.7713,-0.7729,-0.7733,-0.7736,-0.7733,-0.7704,-0.7704,-0.7694,-0.7694,-0.7694]},{"header":{"parameterUnit":"m.s-1","parameterCategory":1,"la1":30.2991,"la2":30.254,"lo1":-89.0895,"lo2":-89.0444,"dy":0.0017,"dx":0.0017,"nx":28,"ny":28,"refTime":"2024-05-07T09:00:00:Z","depth":0,"parameterNumber":3,"parameterNumberName":"V-component_of_WINDS"},"data":[0,0,0,0,0,0,0,0,0,0,0,0,0,0,0,0,0,0,0,0,0,0,0,0,0,0,0,0,0,0,0,0,0,0,0,0,0,0,0,0,0,0,0,0,0,0,0,0,0,0,0,0,0,0,0,0,0,0,7.0191,7.0191,0,7.0205,7.0205,7.0205,7.0117,7.0114,7.0112,7.011,7.0122,7.0125,7.0127,0,0,0,0,0,0,0,0,0,0,0,0,0,7.0084,7.0086,7.0191,7.0191,7.0191,7.0205,7.0205,7.0205,7.0117,7.0114,7.0111,7.0108,7.0121,7.0124,7.0127,0,0,0,0,0,0,0,0,0,0,0,0,0,7.0117,7.0087,7.0191,7.0149,7.0145,7.0205,7.0205,7.0206,7.0118,7.0114,7.011,7.0107,7.012,7.0124,7.0128,7.0228,0,0,7.014,7.0142,0,0,0,0,0,0,0,0,7.0116,7.0121,7.0155,7.0152,7.0148,7.0155,7.0172,7.0213,7.0119,7.0128,7.0109,7.0105,7.0136,7.0138,7.0149,7.0228,7.0229,7.014,7.0143,7.0145,7.0146,0,0,0,0,0,0,0,7.0113,7.012,7.0196,7.0155,7.0151,7.0128,7.0129,7.0179,7.0153,7.0127,7.0121,7.0124,7.0133,7.0146,7.0149,7.0229,7.014,7.0144,7.0146,7.0148,7.0389,7.0393,0,0,0,0,0,0,7.0117,7.0119,7.0196,7.0197,7.0122,7.0133,7.0134,7.0157,7.0152,7.0148,7.0127,7.012,7.0141,7.0144,7.0149,7.0265,7.0144,7.0148,7.0151,7.0385,7.039,7.0395,0,0,0,0,0,0,7.0115,7.0125,7.0195,7.0156,7.0163,7.0139,7.0165,7.0159,7.0171,7.0152,7.0147,7.0145,7.0138,7.0143,7.0209,7.0264,7.015,7.0154,7.0381,7.0387,7.0392,7.0498,0,0,0,0,0,0,7.0113,7.0125,7.0163,7.0158,7.0166,7.0256,7.0169,7.0162,7.0179,7.0169,7.0167,7.0163,7.0135,7.0203,7.0213,7.0267,7.0157,7.0375,7.0383,7.039,7.0489,7.0507,7.0522,0,0,0,0,0,7.0109,7.0192,7.0166,7.0175,7.0214,7.0259,7.0264,7.0231,7.0184,7.0221,7.0209,7.0163,7.0257,7.0211,7.0221,7.0277,7.0372,7.0381,7.039,7.0482,7.0503,7.0521,0,0,0,0,0,0,7.0204,7.0191,7.0161,7.0245,7.0254,7.0244,7.0291,7.0254,7.0276,7.0267,7.0224,7.0224,7.0296,7.0293,7.0242,7.0373,7.0306,7.0317,7.0373,7.0393,7.0408,7.0407,7.016,0,0,0,0,0,7.0235,7.0274,7.026,7.0335,7.0341,7.0316,7.0335,7.0308,7.0315,7.0319,7.0311,7.0319,7.035,7.0371,7.0398,7.0489,7.0486,7.0532,7.0549,7.0562,7.0572,7.0619,7.0639,7.0424,7.0424,7.0424,0,0,7.0299,7.0296,7.0324,7.0354,7.0358,7.0399,7.032,7.0366,7.0395,7.0325,7.0386,7.0381,7.0387,7.0465,7.0499,7.0465,7.0631,7.0574,7.0584,7.0587,7.063,7.065,7.0669,7.043,7.0429,7.0428,0,0,7.0436,7.0439,7.0501,7.0507,7.0514,7.0496,7.0511,7.0507,7.0501,7.0562,7.051,7.0544,7.0598,7.0604,7.0615,7.0754,7.0712,7.0764,7.0848,7.0894,7.0911,7.0925,7.0974,7.0992,7.0774,7.0774,7.0774,0,7.0514,7.0574,7.0538,7.0588,7.0602,7.0541,7.0604,7.0611,7.0626,7.0637,7.0599,7.0665,7.0665,7.0743,7.0777,7.0788,7.0803,7.0763,7.0911,7.0926,7.0939,7.0985,7.1004,7.078,7.078,7.0779,7.0779,0,7.067,7.0712,7.0761,7.0778,7.0798,7.0855,7.0826,7.085,7.0822,7.0808,7.087,7.0868,7.0894,7.091,7.0883,7.0984,7.0963,7.0919,7.085,7.0966,7.1009,7.1026,7.0789,7.0787,7.0785,7.0784,0,0,7.0867,7.0863,7.0882,7.0888,7.0891,7.0923,7.0975,7.1001,7.1022,7.1035,7.1077,7.1125,7.1084,7.1095,7.1068,7.1109,7.1218,7.1059,7.1059,7.1088,7.1329,7.1361,7.1383,7.1191,7.1194,7.1196,7.1328,0,7.1,7.1091,7.106,7.1151,7.1189,7.1132,7.1177,7.1183,7.1172,7.1201,7.1188,7.1222,7.1166,7.1172,7.121,7.1197,7.1265,7.1187,7.1229,7.1231,7.1229,7.1405,7.144,7.1564,7.1344,7.1347,7.1349,0,7.1168,7.1188,7.1284,7.128,7.1294,7.1336,7.1356,7.1386,7.1391,7.138,7.1393,7.1357,7.1407,7.1339,7.1407,7.1355,7.137,7.1366,7.137,7.1372,7.1297,7.1411,7.1603,7.1621,7.1375,7.1373,7.1371,0,7.1302,7.1352,7.1416,7.1423,7.142,7.1451,7.1451,7.1452,7.1469,7.1487,7.1497,7.1521,7.1533,7.1552,7.1523,7.1476,7.1595,7.1524,7.1586,7.1587,7.1613,7.1612,7.181,7.1624,7.1624,7.1624,7.1623,0,7.1454,7.1515,7.1476,7.1515,7.1581,7.1543,7.1609,7.1603,7.1605,7.1641,7.1592,7.1627,7.1587,7.1617,7.1595,7.1654,7.166,7.1652,7.1645,7.1656,7.1657,7.1665,7.1655,7.1628,7.1627,7.1626,7.1626,0,7.1614,7.1591,7.1656,7.1648,7.1647,7.1696,7.1688,7.1723,7.1708,7.1754,7.1763,7.1739,7.1772,7.1745,7.1778,7.1762,7.1841,7.1822,7.184,7.1834,7.1897,7.1891,7.2106,7.2132,7.1931,7.1933,7.1935,0,7.1713,7.1758,7.1754,7.1775,7.1778,7.1813,7.183,7.1795,7.1814,7.1824,7.1858,7.1887,7.1909,7.1965,7.195,7.1974,7.1955,7.2029,7.1959,7.1968,7.1956,7.1953,7.1957,7.2043,7.2045,7.2047,7.2049,0,7.189,7.1875,7.1903,7.1926,7.1948,7.1964,7.1976,7.1996,7.196,7.1984,7.2018,7.2035,7.2068,7.2098,7.2117,7.2116,7.2077,7.2071,7.2087,7.2098,7.2106,7.2102,7.1878,7.2066,7.2065,7.2063,7.2062,7.2062,7.2021,7.2059,7.2062,7.2093,7.2099,7.2111,7.2144,7.2133,7.216,7.2185,7.2162,7.2203,7.2206,7.2228,7.2232,7.2262,7.2232,7.2254,7.226,7.2266,7.2275,7.2102,7.2266,7.2265,7.2265,7.2264,7.2264,0,7.2195,7.2194,7.2223,7.2242,7.2267,7.2228,7.2239,7.2262,7.2299,7.2305,7.2328,7.2366,7.2395,7.2382,7.2406,7.2433,7.2416,7.2441,7.2438,7.2439,7.2301,7.2285,7.2455,7.2455,7.2455,7.2455,7.2455,7.2455,7.2288,7.2349,7.2335,7.2398,7.2396,7.2436,7.2446,7.2457,7.2462,7.2507,7.253,7.2522,7.2521,7.2544,7.2568,7.2564,7.2575,7.2607,7.2596,7.2467,7.2448,7.243,7.2415,7.2609,7.261,7.273,7.2732,7.2732]}]]